Location: Northam
(31.6525°S, 116.6655°E)
Time: 04:32:55
(UTC+08:00)

Tiangong - Visible Passes

Search period start: 05 December 2023 00:00
Search period end: 15 December 2023 00:00
Orbit: 373 x 383 km, 41.5° (Epoch: 04 December)

Date Brightness Start Highest point End Pass type
(mag) Time Alt. Az. Time Alt. Az. Time Alt. Az.
05 Dec 1.4 01:55:59 12° SSE 01:55:59 12° SSE 01:56:30 10° SSE visible
05 Dec 0.8 03:30:00 10° SSW 03:32:09 17° SSE 03:34:19 10° SE visible
06 Dec 0.8 02:29:14 13° SSW 02:30:08 14° S 02:31:57 10° SE visible
06 Dec -0.3 04:04:33 10° SW 04:07:26 32° SSE 04:10:18 10° E visible
07 Dec 0.4 03:02:59 10° SW 03:05:29 21° SSE 03:08:00 10° ESE visible
08 Dec 1.1 02:04:26 15° SSE 02:04:26 15° SSE 02:05:34 10° SE visible
08 Dec -1.4 03:37:30 10° SW 03:40:36 52° SSE 03:43:40 10° ENE visible
09 Dec -0.2 02:38:52 29° SSE 02:38:52 29° SSE 02:41:29 10° E visible
09 Dec -1.6 04:12:28 10° WSW 04:15:23 36° NW 04:18:17 10° NNE visible
09 Dec -1.7 20:41:55 10° NW 20:44:23 43° N 20:44:23 43° N visible
10 Dec -1.9 03:14:09 56° NE 03:14:09 56° NE 03:16:43 10° ENE visible
10 Dec -0.9 19:40:37 10° NNW 19:43:13 24° NE 19:45:50 10° E visible
10 Dec -0.9 21:16:46 10° W 21:19:48 40° SSW 21:19:59 40° SSW visible
11 Dec 0.2 03:50:13 11° N 03:50:13 11° N 03:50:30 10° N visible
11 Dec -2.1 20:14:40 10° WNW 20:17:50 81° SSW 20:21:00 10° ESE visible
11 Dec 0.7 21:52:28 10° WSW 21:54:40 19° SSW 21:54:40 19° SSW visible
12 Dec 0.1 20:49:56 10° W 20:52:42 27° SSW 20:55:29 10° SE visible
12 Dec 1.5 22:28:17 10° SW 22:28:33 11° SSW 22:28:33 11° SSW visible
13 Dec -0.9 19:47:33 10° W 19:50:37 45° SSW 19:53:41 10° SE visible
13 Dec 0.9 21:25:45 10° SW 21:27:48 16° S 21:29:51 10° SSE visible
14 Dec 0.6 20:23:07 10° WSW 20:25:33 20° SSW 20:28:00 10° SE visible
14 Dec 1.0 22:01:14 10° SSW 22:02:57 14° S 22:02:57 14° S visible
